Norwood, MA

7:23 PM EST on February 06, 2016 (GMT -0500)
Norwood Memorial

Weather History for KOWD - January, 2014

Change the Weather History Date:

Friday, January 31, 2014

  Actual Average Record
Temperature  
Mean Temperature 30 °F -  
Max Temperature 42 °F 34 °F 61 °F (2013)
Min Temperature 17 °F 16 °F -2 °F (2011)
Degree Days  
Heating Degree Days 36    
Moisture  
Dew Point 17 °F    
Average Humidity 57    
Maximum Humidity 89    
Minimum Humidity 32    
Precipitation  
Precipitation 0.00 in - - ()
Sea Level Pressure  
Sea Level Pressure 30.10 in    
Wind  
Wind Speed 5 mph (SW)    
Max Wind Speed 15 mph    
Max Gust Speed 24 mph    
Visibility 10 miles    
Events      
Averages and records for this station are not official NWS values.
T = Trace of Precipitation, MM = Missing Value Source: NWS Daily Summary

Daily Weather History Graph

Daily Weather History Graph

Search for Another Location

Airport or City:

Trip Planner

Search our weather history database for the weather conditions in past years. The results will help you decide how hot, cold, wet, or windy it might be!

Date:

Astronomy

Jan. 31, 2014 Rise Set
Actual Time 6:58 AM EST 4:57 PM EST
Civil Twilight 6:29 AM EST 5:27 PM EST
Nautical Twilight 5:55 AM EST 6:01 PM EST
Astronomical Twilight 5:22 AM EST 6:34 PM EST
Moon 7:04 AM EST (1/31) 6:20 PM EST (1/31)
Length of Visible Light 10h 58m
Length of Day
9h 58m
New Moon, 1% of the Moon is Illuminated
Jan 31
New Moon
Feb 6
First Quarter
Feb 14
Full
Feb 22
Last Quarter
Mar 1
New

Hourly Weather History & Observations

Time (EST) Temp. Windchill Dew Point Humidity Pressure Visibility Wind Dir Wind Speed Gust Speed Precip Events Conditions
12:53 AM 17.1 °F 10.0 °F 12.9 °F 84% 30.17 in 10.0 mi South 4.6 mph - N/A   Clear
1:53 AM 19.9 °F - 15.1 °F 81% 30.14 in 10.0 mi Calm Calm - N/A   Clear
2:53 AM 19.9 °F - 17.1 °F 89% 30.12 in 10.0 mi Calm Calm - N/A   Scattered Clouds
3:04 AM 21.0 °F 16.2 °F 17.1 °F 85% 30.11 in 10.0 mi SSE 3.5 mph - N/A   Mostly Cloudy
3:53 AM 23.0 °F 17.0 °F 18.0 °F 81% 30.09 in 10.0 mi SSE 4.6 mph - N/A   Mostly Cloudy
4:53 AM 24.1 °F - 19.0 °F 81% 30.09 in 10.0 mi Calm Calm - N/A   Overcast
5:18 AM 24.1 °F 18.2 °F 19.0 °F 81% 30.06 in 10.0 mi SSE 4.6 mph - N/A   Mostly Cloudy
5:53 AM 25.0 °F - 19.9 °F 81% 30.07 in 10.0 mi Calm Calm - N/A   Mostly Cloudy
6:53 AM 30.0 °F 22.4 °F 24.1 °F 79% 30.05 in 10.0 mi SSW 8.1 mph - N/A   Clear
7:53 AM 30.9 °F 23.5 °F 23.0 °F 72% 30.08 in 10.0 mi WSW 8.1 mph - N/A   Overcast
8:53 AM 32.0 °F 24.2 °F 15.1 °F 50% 30.07 in 10.0 mi SW 9.2 mph - N/A   Clear
9:53 AM 34.0 °F 26.0 °F 12.0 °F 40% 30.08 in 10.0 mi WSW 10.4 mph - N/A   Mostly Cloudy
10:53 AM 36.0 °F 30.3 °F 10.0 °F 34% 30.08 in 10.0 mi WSW 6.9 mph - N/A   Clear
11:53 AM 37.9 °F 32.7 °F 10.0 °F 32% 30.06 in 10.0 mi West 6.9 mph - N/A   Clear
12:53 PM 41.0 °F 37.1 °F 14.0 °F 33% 30.02 in 10.0 mi West 5.8 mph - N/A   Clear
1:53 PM 42.1 °F 35.2 °F 16.0 °F 35% 30.03 in 10.0 mi West 12.7 mph - N/A   Clear
2:53 PM 41.0 °F 33.1 °F 15.1 °F 35% 30.06 in 10.0 mi WNW 15.0 mph 24.2 mph N/A   Clear
3:53 PM 39.9 °F 34.5 °F 16.0 °F 38% 30.07 in 10.0 mi WNW 8.1 mph - N/A   Clear
4:53 PM 39.0 °F 34.8 °F 16.0 °F 39% 30.07 in 10.0 mi WSW 5.8 mph - N/A   Mostly Cloudy
5:53 PM 37.9 °F 35.5 °F 16.0 °F 41% 30.10 in 10.0 mi SSW 3.5 mph - N/A   Mostly Cloudy
6:53 PM 37.0 °F - 17.1 °F 44% 30.12 in 10.0 mi Calm Calm - N/A   Overcast
7:53 PM 37.0 °F 33.3 °F 17.1 °F 44% 30.15 in 10.0 mi WSW 4.6 mph - N/A   Overcast
8:53 PM 36.0 °F 32.1 °F 18.0 °F 48% 30.17 in 10.0 mi West 4.6 mph - N/A   Overcast
9:53 PM 35.1 °F 31.0 °F 19.0 °F 52% 30.17 in 10.0 mi West 4.6 mph - N/A   Mostly Cloudy
10:53 PM 35.1 °F 31.0 °F 19.0 °F 52% 30.19 in 10.0 mi WSW 4.6 mph - N/A   Mostly Cloudy
11:53 PM 35.1 °F 32.2 °F 19.0 °F 52% 30.21 in 10.0 mi SW 3.5 mph - N/A   Overcast